Wind_Speed
39 40 41 41 42 42 42 42 42 43 45 45 45 45 46 46 47 47 47 47 47 47 48 48 48 48 48 47 47 46 45 45 44 44 43 42 42 42 41 40 40 39 38
40 41 41 42 42 42 42 43 43 43 44 45 45 46 46 48 49 49 49 49 49 48 49 49 50 50 50 49 49 48 47 47 46 46 46 45 45 44 43 42 42 41 40
40 41 42 43 43 43 43 44 44 44 44 44 45 47 47 48 49 50 51 51 51 51 51 52 52 52 52 51 51 51 50 49 48 48 47 47 47 46 45 44 43 43 43
41 41 42 43 44 44 44 44 44 44 44 45 45 46 47 48 49 51 52 52 53 54 54 54 53 53 54 53 53 53 52 52 51 50 50 49 48 47 47 46 45 44 44
40 41 42 43 44 44 45 44 44 44 45 45 45 45 46 47 49 51 52 53 54 55 55 56 56 56 55 55 55 55 54 53 53 53 52 51 50 49 48 47 47 46 45
41 41 42 43 43 44 45 45 45 45 45 46 46 46 46 47 48 50 52 54 55 56 56 57 57 57 57 57 56 57 56 54 54 54 53 52 52 51 50 49 48 47 46
41 42 42 42 42 43 44 45 46 46 46 46 47 47 47 48 49 50 52 53 55 57 57 58 58 58 58 58 58 57 57 56 55 55 55 54 53 52 52 51 49 48 47
41 41 42 42 43 43 44 44 45 45 45 46 46 47 48 48 49 50 51 53 55 56 57 58 58 58 59 59 59 59 58 58 57 57 56 55 55 53 53 53 51 49 48
40 41 41 42 43 43 43 44 44 44 45 45 46 46 46 47 48 49 50 52 53 55 56 57 58 58 58 58 58 59 59 59 58 58 58 57 57 56 55 53 52 51 50
40 40 41 41 42 42 43 44 44 44 44 44 44 45 46 46 46 47 48 49 51 53 54 56 57 57 58 58 58 58 58 58 58 59 59 58 57 56 56 55 54 53 52
39 40 40 41 41 42 43 44 44 43 43 44 44 44 44 45 46 47 46 47 47 49 52 53 55 56 57 57 57 57 58 58 58 58 59 58 58 57 56 55 54 53 53
38 39 39 40 41 41 41 42 43 43 43 44 43 43 43 43 44 44 44 45 45 46 48 50 52 53 55 55 56 56 57 57 58 58 58 58 58 58 57 56 55 54 53
37 38 39 39 40 40 41 41 42 42 43 43 43 43 43 43 43 43 43 43 44 44 46 47 49 51 52 53 54 55 55 56 56 57 57 57 58 58 58 57 57 56 54
37 38 38 39 39 39 40 40 41 42 42 43 42 42 42 42 42 43 42 42 42 42 43 44 46 47 49 50 51 52 53 54 55 55 56 56 56 57 57 57 57 56 56
38 37 37 38 38 38 38 39 39 41 41 41 41 41 40 41 41 42 41 40 40 40 41 42 42 44 45 46 47 49 51 52 53 54 54 55 55 56 56 56 56 57 57
37 37 36 36 37 36 36 37 38 38 39 39 40 40 40 39 39 40 39 39 38 39 39 40 41 41 43 44 44 45 48 50 51 51 52 52 53 55 56 56 56 56 56
36 35 35 35 35 35 34 34 34 35 36 36 37 37 38 38 38 38 38 37 37 37 37 38 39 40 41 42 43 43 44 46 48 49 50 50 50 52 54 54 55 55 55
34 34 33 32 33 33 33 33 33 33 33 34 35 35 35 35 36 36 37 37 37 37 36 36 37 37 38 39 40 41 42 43 44 46 48 49 49 48 49 49 50 51 52
33 33 32 31 31 32 32 32 32 31 31 31 32 33 33 34 34 34 35 35 36 35 35 35 35 36 36 37 38 38 39 40 42 44 45 46 47 47 47 47 47 48 49
33 32 31 31 30 30 30 31 31 31 31 30 31 32 32 32 32 33 33 34 34 34 34 34 34 35 35 35 36 36 36 37 39 41 43 44 45 46 47 47 48 48 48
32 32 31 31 31 30 30 30 30 30 30 31 30 30 31 31 31 31 32 32 32 32 33 33 33 33 33 34 34 35 35 36 37 39 40 42 43 44 46 47 46 46 46
31 31 31 31 31 31 30 29 29 29 30 30 30 30 30 30 30 30 31 30 30 30 31 33 33 33 33 33 33 34 34 34 35 36 38 40 42 42 43 43 43 44 44
31 30 30 30 31 30 30 29 28 28 28 28 28 28 29 29 29 29 29 29 30 29 30 31 32 32 32 33 34 34 33 34 34 35 36 38 39 40 42 41 42 43 43
30 30 30 29 30 30 30 29 27 26 26 26 26 27 27 27 28 28 29 29 29 29 28 29 29 30 31 31 32 33 33 33 33 34 34 36 38 39 40 41 41 42 43
30 30 31 30 30 29 28 28 28 27 26 26 25 25 26 26 25 26 28 29 28 28 28 28 28 28 29 29 29 30 31 32 32 33 33 34 35 37 39 41 41 41 42
30 30 30 29 28 28 27 27 27 27 27 26 26 25 25 25 25 25 26 28 28 28 28 28 28 28 29 29 29 30 31 31 31 32 32 32 33 35 37 38 38 39 40
Wind_Direction
266 266 265 265 264 264 263 262 261 260 259 259 258 257 255 254 252 250 249 248 249 249 249 248 248 248 248 248 248 247 247 247 247 248 248 248 249 249 250 250 250 251 251
268 267 266 265 265 265 263 262 262 261 261 259 258 257 256 253 251 251 249 248 248 248 248 248 247 247 247 247 248 249 248 249 249 249 249 249 249 249 250 251 250 250 251
268 267 266 265 265 265 264 263 263 262 261 260 259 258 257 255 253 252 250 250 249 249 248 248 248 249 248 248 248 249 249 248 249 249 249 249 250 250 250 250 251 251 251
269 268 267 266 265 264 264 264 263 263 262 261 260 258 257 256 254 253 251 250 250 249 250 249 248 249 249 249 249 249 249 248 248 249 249 250 250 250 250 250 251 251 252
271 269 268 267 266 264 263 263 263 262 262 262 261 259 258 257 256 254 253 251 251 251 251 250 249 249 249 249 249 250 249 249 249 249 249 250 250 249 250 250 250 251 251
272 271 270 269 267 265 264 263 262 262 262 262 262 261 260 259 258 256 255 253 252 252 252 252 251 250 250 250 250 249 249 248 248 248 248 249 249 249 250 250 250 250 251
273 272 271 269 268 266 265 263 263 263 263 263 263 263 261 260 259 258 256 255 254 252 252 252 251 251 250 250 250 250 249 248 249 248 248 248 248 248 248 249 249 249 250
275 273 272 270 269 267 266 265 264 263 263 263 263 263 263 261 261 260 258 257 255 253 252 251 251 251 250 250 250 250 249 248 248 248 247 247 247 247 248 248 248 249 249
277 274 273 271 270 268 266 265 264 264 264 265 264 263 263 263 262 261 259 257 255 254 252 251 250 250 251 250 250 250 250 249 248 247 247 247 246 246 247 248 248 249 249
279 276 274 272 271 268 267 266 265 265 265 265 265 264 263 263 262 261 259 258 256 254 253 251 250 250 250 250 250 250 249 249 248 247 247 246 245 246 247 247 248 249 249
280 277 275 273 271 270 268 267 266 265 266 265 264 264 264 263 262 262 261 259 257 256 254 252 251 250 250 250 250 249 248 248 248 247 246 246 246 246 247 247 248 248 249
283 280 277 275 273 272 270 268 267 266 265 265 264 264 263 263 262 262 262 260 258 257 255 253 252 250 250 249 249 249 248 247 247 246 246 246 246 246 246 247 247 248 249
286 283 280 277 276 274 272 269 268 267 266 265 264 264 262 262 262 261 261 260 259 258 256 254 252 251 251 250 249 248 248 246 246 246 246 246 246 246 247 247 247 247 249
287 285 283 279 277 276 273 271 269 268 267 266 265 263 262 261 262 262 261 260 259 258 256 254 253 252 251 250 249 248 247 246 245 245 245 245 246 246 246 247 248 248 250
288 285 284 282 279 277 275 273 271 270 268 266 264 263 262 262 262 261 260 259 257 256 256 254 254 253 251 250 250 249 248 247 246 246 245 245 246 246 247 248 249 250 250
289 286 285 283 279 278 277 275 273 271 268 265 264 263 262 261 261 260 258 257 256 257 257 255 253 253 252 251 250 250 249 248 247 246 245 246 246 246 247 249 250 250 251
289 287 285 284 281 278 278 276 274 272 268 266 264 264 263 261 260 259 258 256 255 256 255 254 254 253 253 252 251 250 249 248 247 246 245 245 246 247 248 249 249 250 250
291 289 287 285 282 280 277 276 274 273 270 267 265 264 264 262 260 259 257 257 255 255 254 254 253 252 252 251 251 251 250 248 246 245 244 244 245 247 247 248 248 249 250
291 289 288 285 284 281 279 276 273 272 270 268 266 266 265 263 260 258 257 256 255 254 253 253 253 252 251 251 250 250 250 248 246 244 244 244 245 244 246 248 249 249 250
293 290 287 285 284 283 280 277 273 271 270 268 267 266 266 264 261 258 257 256 255 253 251 251 252 250 250 249 248 248 249 248 247 244 244 245 245 244 245 247 249 250 250
294 293 289 285 282 283 281 277 274 271 269 268 268 267 266 264 261 258 258 257 254 252 251 250 250 250 249 249 248 247 248 249 248 246 244 244 243 243 245 246 247 248 249
295 293 291 289 286 283 282 277 275 272 270 268 268 267 265 263 260 258 257 256 254 253 252 252 251 249 249 248 247 247 248 248 247 245 243 243 242 243 244 245 246 247 249
296 294 292 291 289 286 282 280 277 274 272 270 268 267 265 264 260 257 255 254 253 253 252 253 252 251 250 249 248 249 249 248 247 245 244 245 245 245 245 247 248 248 249
299 295 293 292 290 287 284 281 276 274 274 273 269 266 265 263 261 257 253 253 252 251 251 251 251 250 250 249 248 249 250 249 248 247 245 246 247 247 247 248 249 250 250
300 298 295 293 291 288 285 282 277 274 274 273 270 267 263 262 261 258 253 251 250 249 249 249 249 248 247 247 248 248 249 248 248 248 247 246 247 247 248 249 250 250 252
301 300 297 294 292 290 287 284 279 277 275 273 270 267 265 262 259 257 254 252 251 249 249 248 247 246 246 246 248 251 251 249 249 249 247 247 247 248 249 249 250 251 252
Height
5713 5713 5713 5713 5713 5713 5713 5714 5714 5714 5715 5715 5716 5717 5718 5719 5721 5723 5725 5727 5729 5732 5734 5737 5739 5742 5744 5747 5749 5752 5754 5757 5758 5760 5763 5765 5768 5770 5772 5774 5776 5778 5780
5702 5701 5701 5701 5701 5701 5701 5702 5702 5702 5703 5703 5704 5705 5705 5707 5708 5710 5712 5715 5717 5719 5722 5724 5727 5730 5732 5735 5738 5740 5743 5746 5748 5750 5752 5755 5758 5760 5762 5764 5766 5768 5770
5690 5690 5689 5689 5689 5689 5689 5689 5690 5690 5690 5690 5691 5692 5693 5694 5696 5698 5700 5702 5704 5706 5709 5711 5714 5717 5720 5722 5725 5728 5731 5734 5737 5739 5742 5744 5747 5750 5752 5754 5756 5759 5761
5679 5678 5678 5677 5677 5677 5677 5677 5677 5677 5677 5678 5678 5679 5680 5681 5682 5684 5686 5688 5690 5693 5695 5698 5701 5704 5706 5709 5713 5716 5719 5722 5725 5727 5730 5733 5736 5739 5741 5743 5746 5748 5750
5667 5666 5665 5665 5664 5664 5664 5664 5664 5664 5664 5665 5665 5665 5666 5667 5668 5670 5672 5674 5676 5678 5681 5684 5687 5690 5692 5696 5699 5702 5705 5709 5712 5715 5718 5721 5724 5726 5729 5733 5735 5737 5739
5654 5654 5653 5652 5652 5651 5651 5651 5651 5651 5651 5651 5651 5652 5652 5653 5654 5655 5657 5659 5661 5664 5666 5669 5671 5675 5678 5681 5684 5687 5691 5695 5698 5701 5705 5708 5711 5715 5718 5721 5723 5726 5728
5642 5641 5640 5639 5639 5638 5638 5638 5637 5637 5638 5638 5638 5638 5638 5639 5640 5641 5642 5644 5646 5648 5651 5653 5656 5659 5662 5665 5669 5673 5677 5680 5684 5688 5691 5695 5698 5702 5705 5708 5711 5714 5717
5629 5628 5627 5626 5625 5625 5625 5624 5624 5624 5624 5624 5624 5624 5624 5625 5625 5626 5627 5628 5630 5632 5635 5637 5640 5643 5646 5650 5653 5657 5661 5665 5669 5673 5677 5681 5685 5688 5692 5695 5698 5701 5705
5617 5615 5614 5613 5612 5612 5611 5611 5611 5611 5611 5610 5610 5610 5610 5611 5611 5611 5612 5613 5615 5617 5619 5622 5625 5628 5631 5634 5638 5642 5645 5650 5654 5658 5662 5667 5671 5675 5678 5682 5685 5689 5692
5604 5603 5601 5600 5599 5599 5598 5598 5598 5598 5597 5597 5597 5597 5597 5597 5597 5597 5597 5598 5600 5601 5603 5606 5609 5612 5615 5619 5622 5626 5630 5634 5638 5643 5647 5652 5656 5660 5665 5669 5672 5676 5679
5592 5591 5589 5588 5587 5586 5585 5584 5584 5584 5584 5583 5583 5583 5583 5583 5583 5583 5584 5585 5585 5587 5588 5591 5593 5596 5600 5603 5607 5611 5615 5619 5623 5627 5632 5637 5641 5646 5650 5654 5658 5662 5666
5580 5578 5577 5575 5574 5573 5572 5571 5571 5570 5570 5570 5570 5570 5570 5570 5570 5570 5570 5571 5572 5573 5574 5576 5579 5581 5585 5588 5592 5595 5599 5603 5608 5612 5617 5622 5626 5631 5635 5640 5644 5648 5652
5569 5566 5564 5563 5562 5561 5560 5559 5558 5557 5557 5557 5557 5557 5557 5557 5557 5558 5558 5558 5559 5559 5560 5562 5564 5567 5570 5573 5577 5580 5584 5589 5593 5598 5602 5607 5611 5616 5621 5625 5630 5634 5638
5558 5555 5553 5551 5550 5548 5547 5547 5546 5545 5544 5544 5544 5544 5544 5544 5545 5545 5545 5545 5546 5546 5547 5549 5551 5554 5556 5559 5562 5566 5570 5574 5578 5583 5587 5592 5596 5601 5606 5610 5615 5619 5624
5548 5545 5542 5540 5538 5537 5535 5534 5533 5532 5532 5531 5531 5531 5532 5532 5532 5532 5533 5533 5533 5534 5535 5537 5539 5541 5543 5546 5549 5552 5556 5560 5564 5568 5573 5578 5582 5587 5592 5596 5600 5605 5609
5537 5534 5531 5529 5527 5526 5524 5523 5522 5520 5520 5519 5519 5519 5520 5520 5520 5521 5521 5522 5523 5523 5524 5526 5528 5530 5532 5535 5537 5539 5543 5546 5550 5554 5559 5564 5568 5573 5577 5581 5586 5590 5594
5527 5524 5521 5519 5517 5515 5513 5512 5511 5509 5508 5508 5508 5508 5508 5508 5509 5510 5510 5511 5512 5513 5514 5515 5517 5519 5521 5523 5526 5528 5530 5534 5537 5541 5546 5550 5554 5558 5563 5567 5571 5575 5579
5518 5515 5512 5509 5507 5505 5504 5502 5500 5499 5498 5498 5497 5497 5497 5497 5498 5499 5500 5501 5502 5503 5504 5505 5507 5508 5511 5512 5514 5517 5519 5522 5525 5529 5533 5538 5542 5546 5550 5553 5557 5561 5565
5509 5506 5503 5500 5498 5496 5494 5492 5491 5489 5489 5488 5487 5487 5487 5487 5488 5489 5489 5490 5491 5493 5494 5495 5497 5499 5501 5502 5504 5506 5508 5511 5514 5517 5521 5525 5529 5534 5537 5541 5544 5548 5552
5500 5497 5494 5491 5489 5486 5484 5483 5481 5480 5479 5478 5478 5478 5477 5477 5478 5478 5479 5480 5481 5483 5484 5486 5487 5489 5491 5492 5494 5496 5498 5501 5503 5507 5510 5514 5517 5521 5524 5528 5532 5536 5540
5491 5488 5485 5482 5480 5477 5475 5473 5472 5471 5470 5469 5469 5468 5468 5468 5468 5469 5470 5471 5472 5474 5475 5477 5478 5479 5481 5483 5484 5486 5488 5491 5493 5496 5499 5502 5505 5509 5513 5517 5520 5524 5527
5482 5479 5476 5473 5470 5468 5466 5464 5463 5462 5461 5460 5459 5459 5459 5459 5459 5460 5461 5462 5463 5465 5466 5467 5469 5470 5472 5473 5475 5477 5479 5481 5483 5486 5488 5491 5495 5498 5502 5505 5508 5512 5515
5474 5470 5467 5464 5461 5458 5456 5455 5453 5453 5452 5451 5451 5450 5450 5450 5450 5451 5452 5453 5454 5456 5458 5459 5460 5461 5462 5464 5466 5468 5470 5472 5474 5476 5479 5482 5485 5488 5491 5494 5497 5500 5503
5466 5462 5459 5456 5452 5449 5447 5446 5445 5444 5443 5442 5442 5442 5441 5441 5441 5442 5443 5445 5446 5448 5449 5451 5452 5453 5454 5455 5457 5459 5461 5463 5465 5467 5470 5472 5475 5478 5480 5483 5486 5489 5491
5458 5454 5451 5447 5444 5442 5439 5437 5436 5436 5435 5434 5434 5433 5433 5433 5433 5434 5435 5436 5438 5439 5441 5442 5444 5445 5446 5447 5449 5450 5452 5454 5456 5458 5461 5463 5465 5467 5469 5472 5475 5477 5479
5450 5446 5442 5439 5436 5434 5432 5430 5428 5427 5427 5426 5426 5425 5425 5425 5425 5426 5427 5428 5429 5431 5432 5434 5435 5437 5438 5440 5441 5442 5444 5445 5447 5449 5451 5453 5455 5457 5459 5461 5464 5466 5468